FW1093 Weather Reports


time (UTC)temp
F
wind
direction
speed
knots
gust
knots
rain 1hr
in
rain 24hr
in
rain mn
in
humidity
%
barometer
mb
20260903123328 68 79 0.0 0.0 0.00 0.34 0.33 98 1015.6
20260903122319 68 79 0.0 0.0 0.00 0.34 0.33 98 1015.8
20260903121314 68 79 0.0 0.0 0.00 0.34 0.33 98 1015.9
20260903120350 68 79 0.0 0.0 0.00 0.34 0.33 98 1016.0
20260903115321 68 79 0.0 0.0 0.00 0.34 0.33 98 1016.0
20260903114315 67 79 0.0 0.0 0.00 0.34 0.33 98 1016.2
20260903113333 67 79 0.0 0.0 0.00 0.34 0.33 98 1016.3
20260903112328 67 79 0.0 0.0 0.00 0.34 0.33 98 1016.3
20260903111321 67 79 0.0 0.0 0.00 0.34 0.33 98 1016.1
20260903110315 67 79 0.0 0.0 0.00 0.34 0.33 98 1016.1
20260903105335 67 79 0.0 0.0 0.00 0.34 0.33 98 1016.0
20260903104332 67 79 0.0 0.0 0.00 0.34 0.33 98 1016.1
20260903103331 67 79 0.0 0.0 0.00 0.34 0.33 98 1015.9
20260903102322 67 79 0.0 0.0 0.00 0.34 0.33 98 1015.8
20260903101342 67 79 0.0 0.0 0.00 0.34 0.33 98 1016.0
20260903100316 67 79 0.0 0.0 0.00 0.34 0.33 98 1015.7
20260903095336 66 79 0.0 0.0 0.00 0.34 0.33 98 1015.3
20260903094329 66 79 0.0 0.0 0.00 0.34 0.33 97 1015.3
20260903093350 66 79 0.0 0.0 0.00 0.34 0.33 97 1015.6
20260903092327 66 79 0.0 0.0 0.00 0.34 0.33 97 1015.3
20260903091344 66 79 0.0 0.0 0.00 0.34 0.33 97 1015.4
20260903090344 66 79 0.0 0.0 0.00 0.34 0.33 97 1015.8
20260903085317 66 79 0.0 0.0 0.00 0.34 0.33 97 1015.8
20260903084358 66 79 0.0 0.0 0.00 0.34 0.33 97 1015.9
20260903083331 65 79 0.0 0.0 0.00 0.34 0.33 97 1015.8
20260903082323 65 79 0.0 0.0 0.00 0.34 0.33 97 1016.0
20260903081317 65 79 0.0 0.0 0.00 0.34 0.33 97 1016.1
20260903080336 65 79 0.0 0.0 0.00 0.34 0.33 97 1016.3
20260903075337 65 79 0.0 0.0 0.00 0.34 0.33 97 1016.2
20260903074330 65 79 0.0 0.0 0.00 0.34 0.33 97 1016.4
20260903073326 65 79 0.0 0.0 0.00 0.34 0.33 97 1016.4
20260903072320 65 79 0.0 0.0 0.00 0.34 0.33 97 1016.4
20260903071317 65 79 0.0 0.0 0.01 0.34 0.33 97 1016.5
20260903070312 65 79 0.0 0.0 0.01 0.34 0.33 97 1016.6
20260903065333 65 79 0.0 0.0 0.02 0.34 0.33 97 1016.6
20260903064331 65 79 0.0 0.0 0.05 0.34 0.33 97 1016.5
20260903063324 65 79 0.0 0.9 0.20 0.34 0.33 96 1016.7
20260903062320 64 79 0.0 0.0 0.33 0.34 0.33 96 1016.2
20260903061329 64 79 0.0 0.0 0.32 0.33 0.32 96 1016.7
20260903060324 64 79 0.0 0.0 0.32 0.33 0.32 96 1016.8
20260903055343 64 79 0.0 0.0 0.30 0.31 0.30 96 1017.6
20260903054314 64 79 0.0 0.0 0.27 0.28 0.27 95 1018.2
20260903053356 65 79 0.0 1.7 0.14 0.15 0.14 95 1018.8
20260903052330 65 293 0.0 0.9 0.00 0.01 0.00 95 1019.0
20260903051324 64 327 0.0 0.0 0.00 0.01 0.00 95 1018.5
20260903050322 64 327 0.0 0.0 0.00 0.01 0.00 95 1018.5
20260903045315 64 327 0.0 0.0 0.00 0.01 0.00 95 1018.5
20260903044336 64 327 0.0 0.0 0.00 0.01 0.00 94 1018.6
20260903043330 64 327 0.0 0.0 0.00 0.01 0.00 94 1018.7
20260903042323 64 327 0.0 0.0 0.00 0.01 0.00 94 1018.8
20260903041318 64 327 0.0 0.0 0.00 0.01 0.00 94 1018.9
20260903040334 64 327 0.0 0.0 0.00 0.01 0.00 94 1019.0
20260903035338 64 327 0.0 0.0 0.00 0.02 0.01 94 1019.2
20260903034311 64 327 0.0 0.0 0.00 0.02 0.01 94 1019.0
20260903033335 64 327 0.0 0.0 0.00 0.02 0.01 94 1018.6
20260903032326 64 327 0.0 0.0 0.00 0.02 0.01 93 1018.7
20260903031348 64 327 0.0 0.0 0.00 0.02 0.01 93 1018.8
20260903030324 64 327 0.0 0.0 0.00 0.02 0.01 93 1019.2
20260903025318 64 327 0.0 0.0 0.00 0.02 0.01 93 1019.2
20260903024313 64 327 0.0 0.0 0.00 0.02 0.01 93 1019.7
20260903023331 64 327 0.0 0.0 0.00 0.02 0.01 93 1019.8
20260903022324 64 327 0.0 0.0 0.00 0.02 0.01 93 1019.9
20260903021345 64 327 0.0 0.0 0.00 0.02 0.01 93 1019.8
20260903020320 64 327 0.0 0.0 0.00 0.02 0.01 93 1020.2
20260903015312 64 327 0.0 0.0 0.00 0.02 0.01 93 1020.1
20260903014332 64 327 0.0 0.0 0.00 0.02 0.01 93 1020.1
20260903013328 64 327 0.0 0.0 0.00 0.02 0.01 93 1020.0
20260903012321 64 327 0.0 0.0 0.00 0.02 0.01 93 1020.2
20260903011314 64 327 0.0 0.0 0.00 0.02 0.01 92 1020.2
20260903010325 64 327 0.0 0.0 0.00 0.02 0.01 92 1020.1
20260903005315 64 327 0.0 0.0 0.00 0.02 0.01 92 1020.1
20260903004335 64 327 0.0 0.0 0.00 0.02 0.01 92 1020.2
20260903003326 65 327 0.0 0.0 0.00 0.02 0.01 92 1020.3
20260903002319 65 327 0.0 0.0 0.00 0.02 0.01 92 1020.1
20260903001312 65 327 0.0 0.0 0.00 0.02 0.01 92 1019.9
20260903000332 65 327 0.0 0.9 0.00 0.02 0.01 91 1019.6
20260902235327 65 328 0.0 0.9 0.00 0.04 0.01 91 1019.5
20260902234320 65 327 0.0 0.0 0.00 0.04 0.01 91 1019.9
20260902233315 65 281 0.0 0.0 0.00 0.04 0.01 91 1020.1
20260902232328 65 281 0.0 0.0 0.00 0.04 0.01 90 1019.9
20260902231319 66 281 0.0 0.0 0.00 0.04 0.01 90 1020.3
20260902230338 66 281 0.0 0.0 0.00 0.04 0.01 90 1020.5
20260902225328 67 281 0.0 0.0 0.00 0.04 0.01 89 1020.5
20260902224321 67 281 0.0 0.0 0.00 0.04 0.01 88 1020.9
20260902223315 68 281 0.0 0.0 0.00 0.04 0.01 87 1021.0
20260902222335 69 281 0.0 0.0 0.00 0.04 0.01 85 1021.1
20260902221328 69 282 0.0 2.6 0.00 0.04 0.01 86 1021.0
20260902220323 68 293 0.0 0.0 0.00 0.04 0.01 87 1021.0
20260902215313 67 293 0.0 0.0 0.00 0.04 0.01 86 1021.0
20260902214333 67 292 0.0 0.0 0.00 0.04 0.01 89 1021.0
20260902213330 68 292 0.0 0.0 0.00 0.04 0.01 89 1020.9
20260902212325 68 292 0.0 0.0 0.00 0.04 0.01 88 1020.9
20260902211320 68 292 0.0 0.0 0.00 0.04 0.01 87 1021.0
20260902210314 68 292 0.0 0.0 0.00 0.04 0.01 89 1020.8
20260902205333 68 292 0.0 0.0 0.00 0.04 0.01 90 1020.6
20260902204351 68 292 0.0 0.0 0.00 0.04 0.01 89 1020.9
20260902203321 68 292 0.0 0.0 0.01 0.04 0.01 90 1021.1
20260902202318 67 292 0.0 0.0 0.01 0.04 0.01 90 1020.7
20260902201329 68 292 0.0 0.0 0.01 0.04 0.01 90 1020.5
20260902200347 67 292 0.0 0.0 0.01 0.04 0.01 91 1020.4
20260902195321 67 292 0.0 0.0 0.01 0.04 0.01 89 1020.7
20260902194315 66 292 0.0 0.0 0.01 0.04 0.01 88 1020.9
20260902193334 66 292 0.0 0.0 0.00 0.03 0.00 87 1021.0
20260902192327 66 292 0.0 0.0 0.00 0.03 0.00 89 1021.3
20260902191337 67 292 0.0 0.0 0.00 0.03 0.00 87 1021.6
20260902190337 67 292 0.0 0.0 0.00 0.03 0.00 85 1021.5
20260902185330 67 292 0.0 0.0 0.00 0.03 0.00 85 1021.3
20260902184322 68 292 0.0 0.0 0.00 0.03 0.00 83 1021.2
20260902183315 69 292 0.0 0.9 0.00 0.03 0.00 81 1021.1
20260902182337 69 292 0.0 0.0 0.00 0.03 0.00 77 1021.1
20260902181330 70 292 0.0 0.0 0.00 0.03 0.00 78 1021.2
20260902180322 70 292 0.0 0.9 0.00 0.03 0.00 79 1021.5
20260902175315 70 292 0.0 0.9 0.00 0.03 0.00 78 1021.5
20260902174327 70 292 0.0 0.0 0.00 0.03 0.00 81 1021.6
20260902173323 70 291 0.0 0.0 0.00 0.03 0.00 81 1021.5
20260902172316 70 291 0.0 0.0 0.00 0.03 0.00 81 1021.5
20260902171340 71 291 0.0 0.9 0.00 0.03 0.00 76 1021.6
20260902170338 71 292 0.0 0.0 0.00 0.03 0.00 78 1021.4
20260902165331 71 292 0.0 0.9 0.00 0.03 0.00 76 1021.3
20260902164325 71 280 0.0 0.9 0.00 0.03 0.00 77 1021.1
20260902163343 70 280 0.0 0.0 0.00 0.03 0.00 80 1021.2
20260902162319 69 288 0.0 0.0 0.00 0.03 0.00 84 1021.3
20260902161334 69 288 0.0 0.0 0.00 0.03 0.00 84 1021.3
20260902160335 69 287 0.0 2.6 0.00 0.03 0.00 83 1021.4
20260902155327 69 283 0.0 0.9 0.00 0.03 0.00 83 1021.4
20260902154346 69 302 0.0 0.9 0.00 0.03 0.00 86 1021.5
20260902153345 68 302 0.0 0.9 0.00 0.03 0.00 85 1021.6
20260902152315 68 300 0.0 0.9 0.00 0.03 0.00 87 1021.9
20260902151334 67 300 0.0 0.9 0.00 0.03 0.00 86 1021.9
20260902150332 67 304 0.0 0.0 0.00 0.03 0.00 88 1022.0
20260902145325 66 305 0.0 0.9 0.00 0.04 0.00 89 1022.0
20260902144320 66 272 0.0 0.0 0.00 0.04 0.00 90 1022.0
20260902143313 65 272 0.0 0.9 0.00 0.04 0.00 88 1022.0
20260902142333 65 274 0.0 0.0 0.00 0.04 0.00 91 1022.0
20260902141329 65 274 0.0 0.0 0.00 0.04 0.00 92 1022.3
20260902140319 65 274 0.0 0.9 0.00 0.04 0.00 91 1022.2
20260902135312 65 274 0.0 0.9 0.00 0.11 0.00 91 1021.9
20260902134336 64 274 0.0 0.0 0.00 0.11 0.00 91 1021.7
20260902133333 64 274 0.0 0.9 0.00 0.11 0.00 93 1021.7
20260902132330 64 271 0.0 0.9 0.00 0.11 0.00 91 1021.6
20260902131325 64 271 0.0 0.0 0.00 0.11 0.00 93 1021.5
20260902130318 63 271 0.0 0.9 0.00 0.11 0.00 94 1021.5
20260902125313 63 271 0.0 0.0 0.00 0.12 0.00 93 1021.3
20260902124329 63 271 0.0 0.9 0.00 0.12 0.00 93 1021.3